#timestamp,LO_Frequency,Hit,StdDev 
1585480815.5,286046990.5,P
1585480835.4,286046991.2,P
1585480855.2,286046988.6,P
1585480875.0,286046988.7,Y
1585480875.9,286046988.7,P
1585480895.8,286046998.3,N
1585480915.6,286046998.4,N
1585480935.5,286047000.6,N
1585480955.3,286047001.2,N
1585480975.1,286047000.8,N
1585480995.9,286046998.9,N
1585481015.7,286046998.3,N
1585481035.6,286046998.8,N
1585481055.4,286046999.2,N
1585481075.2,286046998.9,N
1585481095.1,286046999.4,N
1585481096.0,286046999.4,N
1585481115.8,286046998.9,N
1585481135.6,286046998.1,N
1585481155.5,286046998.9,N
1585481175.3,286046998.4,N
1585481195.2,286046999.3,N
1585481215.9,286046999.0,N
1585481235.7,286047000.7,N
1585481255.6,286047001.1,N
1585481275.4,286046998.6,N
1585481295.3,286046999.0,N
1585481315.1,286046997.7,N
1585481316.0,286046997.7,N
1585481335.8,286046999.4,N
1585481355.7,286046996.6,N
1585481375.5,286046999.3,N
1585481395.3,286046998.9,N
1585481415.2,286046998.3,N
1585481435.0,286046998.5,N
1585481435.9,286046998.5,N
1585481455.8,286047001.2,N
1585481475.6,286046998.8,N
1585481495.4,286046999.0,N
1585481515.3,286046998.9,N
1585481535.1,286046998.3,N
1585481555.8,286046998.5,N
1585481575.7,286046998.8,N
1585481595.5,286047001.0,N
1585481615.4,286046998.1,N
1585481635.2,286047000.6,N
1585481655.0,286047000.9,N
1585481655.9,286047000.9,N
1585481675.8,286046998.7,N
1585481695.6,286047001.0,N
1585481715.5,286047000.5,N
1585481735.3,286047000.9,N
1585481755.1,286047000.5,N
1585481775.9,286046998.1,N
1585481795.7,286047000.8,N
1585481815.6,286046998.3,N
1585481835.4,286046998.4,N
1585481855.2,286046998.3,N
1585481875.1,286046998.2,N
1585481876.0,286046998.2,N
1585481895.8,286047001.0,N
1585481915.6,286047000.7,N
1585481935.5,286047000.1,N
1585481955.3,286047000.5,N
1585481975.2,286047000.6,N
1585481995.9,286046999.8,N
1585482015.7,286047000.2,N
1585482035.6,286047000.1,N
1585482055.4,286047000.0,N
1585482075.3,286047000.7,N
1585482095.1,286047002.8,N
1585482096.0,286047002.8,N
1585482115.8,286047000.1,N
1585482135.7,286047001.3,N
1585482155.5,286047002.6,N
1585482175.3,286047002.2,N
1585482195.2,286047001.9,N
1585482215.0,286047001.6,N
1585482215.9,286047001.6,N
1585482235.8,286047000.1,N
1585482255.6,286047002.3,N
1585482275.4,286047002.1,N
1585482295.3,286047002.7,N
1585482315.1,286047000.1,N
1585482335.9,286047001.9,N
1585482355.7,286047001.7,N
1585482375.5,286047004.4,Y
1585482395.4,286047001.4,P
1585482415.2,286047002.5,P
1585482435.1,286046999.7,N
1585482436.0,286046999.7,N
1585482455.8,286047000.6,N
1585482475.6,286046999.9,N
1585482495.5,286046999.7,N
1585482515.3,286047004.4,Y
1585482535.2,286047001.3,P
1585482555.9,286047004.2,P
1585482575.7,286047004.3,N
1585482595.6,286047001.9,N
1585482615.4,286047001.3,N
1585482635.2,286047001.8,N
1585482655.1,286047003.7,N
1585482656.0,286047003.7,N
1585482675.8,286047003.1,N
1585482695.7,286047004.2,Y
1585482715.5,286047000.9,P
1585482735.3,286047002.7,P
1585482755.2,286047000.6,N
1585482775.0,286047000.7,N
1585482775.9,286047000.7,N
1585482795.8,286047000.7,N
1585482815.6,286047001.0,N
1585482835.4,286047000.0,N
1585482855.3,286047000.1,N
1585482875.1,286046999.7,N
1585482895.8,286046999.8,N
1585482915.7,286047002.8,N
1585482935.5,286047000.0,N
1585482955.4,286047002.0,N
1585482975.2,286047002.2,N
1585482995.0,286047002.0,N
1585482995.9,286047002.0,N
1585483015.8,286047001.9,N
1585483035.6,286047000.9,N
1585483055.4,286046999.9,N
1585483075.3,286047000.5,N
1585483095.1,286047000.0,N
1585483115.9,286047002.4,N
1585483135.7,286046999.7,N
1585483155.5,286047000.2,N
1585483175.4,286047000.1,N
1585483195.2,286046999.8,N
